| time (UTC) | temp F | wind direction | speed knots | gust knots | rain 1hr in | rain 24hr in | rain mn in | humidity % | barometer mb |
| 20260505164756 | 78 | 220 | 7.0 | 13.0 | 0.00 | 0.00 | 0.00 | 38 | 1052.5 |
| 20260505163754 | 79 | 216 | 2.6 | 3.5 | 0.00 | 0.00 | 0.00 | 40 | 1052.5 |
| 20260505162837 | 79 | 209 | 1.7 | 4.3 | 0.00 | 0.00 | 0.00 | 40 | 1052.7 |
| 20260505162755 | 79 | 152 | 1.7 | 4.3 | 0.00 | 0.00 | 0.00 | 40 | 1052.7 |
| 20260505161755 | 78 | 230 | 1.7 | 3.5 | 0.00 | 0.00 | 0.00 | 40 | 1052.7 |
| 20260505160754 | 78 | 166 | 1.7 | 3.5 | 0.00 | 0.00 | 0.00 | 40 | 1052.9 |
| 20260505152753 | 77 | 233 | 1.7 | 3.5 | 0.00 | 0.00 | 0.00 | 42 | 1052.9 |
| 20260505151852 | 77 | 203 | 1.7 | 3.5 | 0.00 | 0.00 | 0.00 | 42 | 1052.9 |
| 20260505150854 | 76 | 218 | 4.3 | 6.1 | 0.00 | 0.00 | 0.00 | 42 | 1052.9 |
| 20260505150755 | 76 | 243 | 2.6 | 5.2 | 0.00 | 0.00 | 0.00 | 43 | 1052.7 |
| 20260505140553 | 72 | 180 | 1.7 | 4.3 | 0.00 | 0.00 | 0.00 | 48 | 1053.2 |
| 20260505124555 | 65 | 199 | 2.6 | 5.2 | 0.00 | 0.00 | 0.00 | 57 | 1053.8 |
| 20260505123653 | 64 | 238 | 1.7 | 3.5 | 0.00 | 0.00 | 0.00 | 58 | 1053.9 |
| 20260505122737 | 64 | 233 | 1.7 | 2.6 | 0.00 | 0.00 | 0.00 | 59 | 1053.9 |
| 20260505121754 | 63 | 217 | 3.5 | 7.0 | 0.00 | 0.00 | 0.00 | 59 | 1053.8 |
| 20260505115754 | 62 | 223 | 1.7 | 3.5 | 0.00 | 0.00 | 0.00 | 62 | 1053.7 |
| 20260505112754 | 60 | 225 | 2.6 | 4.3 | 0.00 | 0.00 | 0.00 | 65 | 1053.4 |
| 20260505112653 | 60 | 191 | 1.7 | 3.5 | 0.00 | 0.00 | 0.00 | 65 | 1053.4 |
| 20260505111654 | 60 | 189 | 0.9 | 2.6 | 0.00 | 0.00 | 0.00 | 65 | 1053.4 |
| 20260505110654 | 59 | 181 | 1.7 | 3.5 | 0.00 | 0.00 | 0.00 | 67 | 1053.2 |
| 20260505101653 | 55 | 202 | 0.0 | 0.0 | 0.00 | 0.00 | 0.00 | 75 | 1052.6 |
| 20260505100654 | 55 | 205 | 0.9 | 1.7 | 0.00 | 0.00 | 0.00 | 75 | 1052.4 |
| 20260505100555 | 55 | 183 | 0.9 | 1.7 | 0.00 | 0.00 | 0.00 | 75 | 1052.4 |
| 20260505095653 | 54 | 197 | 0.0 | 2.6 | 0.00 | 0.00 | 0.00 | 77 | 1052.3 |
| 20260505093753 | 50 | 112 | 0.0 | 0.0 | 0.00 | 0.00 | 0.00 | 82 | 1052.2 |
| 20260505092837 | 50 | 180 | 0.0 | 0.0 | 0.00 | 0.00 | 0.00 | 82 | 1052.4 |
| 20260505091854 | 50 | 180 | 0.0 | 0.0 | 0.00 | 0.00 | 0.00 | 82 | 1052.2 |
| 20260505090754 | 50 | 180 | 0.0 | 0.0 | 0.00 | 0.00 | 0.00 | 82 | 1052.2 |
| 20260505085753 | 51 | 180 | 0.0 | 0.0 | 0.00 | 0.00 | 0.00 | 81 | 1052.2 |
| 20260505085654 | 51 | 180 | 0.0 | 0.0 | 0.00 | 0.00 | 0.00 | 81 | 1052.2 |
| 20260505084654 | 51 | 180 | 0.0 | 0.0 | 0.00 | 0.00 | 0.00 | 80 | 1052.2 |
| 20260505084554 | 51 | 180 | 0.0 | 0.0 | 0.00 | 0.00 | 0.00 | 80 | 1052.2 |
| 20260505083652 | 51 | 180 | 0.0 | 0.0 | 0.00 | 0.00 | 0.00 | 81 | 1052.2 |
| 20260505082653 | 51 | 225 | 0.0 | 0.0 | 0.00 | 0.00 | 0.00 | 82 | 1052.2 |
| 20260505081654 | 51 | 202 | 0.0 | 0.0 | 0.00 | 0.00 | 0.00 | 82 | 1052.3 |
| 20260505081553 | 51 | 202 | 0.0 | 0.0 | 0.00 | 0.00 | 0.00 | 81 | 1052.3 |
| 20260505080553 | 51 | 198 | 0.0 | 0.9 | 0.00 | 0.00 | 0.00 | 82 | 1052.3 |
| 20260505074652 | 50 | 202 | 0.0 | 0.0 | 0.00 | 0.00 | 0.00 | 81 | 1052.2 |
| 20260505074554 | 51 | 202 | 0.0 | 0.0 | 0.00 | 0.00 | 0.00 | 80 | 1052.2 |
| 20260505073652 | 51 | 202 | 0.0 | 0.0 | 0.00 | 0.00 | 0.00 | 80 | 1052.2 |
| 20260505072654 | 52 | 202 | 0.0 | 0.0 | 0.00 | 0.00 | 0.00 | 80 | 1052.2 |
| 20260505071654 | 52 | 202 | 0.0 | 0.0 | 0.00 | 0.00 | 0.00 | 79 | 1052.1 |
| 20260505070652 | 53 | 202 | 0.0 | 0.0 | 0.00 | 0.00 | 0.00 | 79 | 1052.1 |
| 20260505064654 | 54 | 202 | 0.0 | 0.0 | 0.00 | 0.00 | 0.00 | 76 | 1052.0 |
| 20260505063653 | 55 | 202 | 0.0 | 0.0 | 0.00 | 0.00 | 0.00 | 76 | 1052.1 |
| 20260505062654 | 55 | 202 | 0.0 | 0.0 | 0.00 | 0.00 | 0.00 | 75 | 1052.0 |
| 20260505061753 | 55 | 202 | 0.0 | 0.0 | 0.00 | 0.00 | 0.00 | 75 | 1052.2 |
| 20260505060753 | 55 | 202 | 0.0 | 0.9 | 0.00 | 0.00 | 0.00 | 73 | 1052.3 |
| 20260505055754 | 55 | 202 | 0.0 | 0.0 | 0.00 | 0.00 | 0.00 | 72 | 1052.2 |
| 20260505054755 | 56 | 202 | 0.0 | 0.0 | 0.00 | 0.00 | 0.00 | 72 | 1052.4 |
| 20260505053753 | 57 | 202 | 0.0 | 0.0 | 0.00 | 0.00 | 0.00 | 70 | 1052.3 |
| 20260505053654 | 57 | 202 | 0.0 | 0.0 | 0.00 | 0.00 | 0.00 | 71 | 1052.3 |
| 20260505052654 | 57 | 202 | 0.0 | 0.0 | 0.00 | 0.00 | 0.00 | 69 | 1052.3 |
| 20260505051655 | 57 | 202 | 0.0 | 0.0 | 0.00 | 0.00 | 0.00 | 67 | 1052.3 |
| 20260505051553 | 57 | 202 | 0.0 | 0.0 | 0.00 | 0.00 | 0.00 | 67 | 1052.4 |
| 20260505050554 | 58 | 202 | 0.0 | 0.0 | 0.00 | 0.00 | 0.00 | 66 | 1052.2 |
| 20260505041752 | 58 | 189 | 0.9 | 3.5 | 0.00 | 0.00 | 0.00 | 65 | 1052.0 |
| 20260505040754 | 57 | 157 | 0.0 | 2.6 | 0.00 | 0.00 | 0.00 | 67 | 1052.0 |
| 20260505035836 | 57 | 181 | 0.0 | 0.9 | 0.00 | 0.00 | 0.00 | 67 | 1052.0 |
| 20260505034934 | 57 | 202 | 0.0 | 0.0 | 0.00 | 0.00 | 0.00 | 67 | 1052.0 |
| 20260505033934 | 58 | 112 | 0.0 | 0.0 | 0.00 | 0.00 | 0.00 | 65 | 1051.9 |
| 20260505033835 | 58 | 112 | 0.0 | 0.0 | 0.00 | 0.00 | 0.00 | 66 | 1051.8 |
| 20260505032837 | 58 | 112 | 0.0 | 0.0 | 0.00 | 0.00 | 0.00 | 64 | 1051.9 |
| 20260505031934 | 58 | 177 | 0.0 | 0.9 | 0.00 | 0.00 | 0.00 | 64 | 1051.9 |
| 20260505030936 | 58 | 180 | 0.0 | 0.9 | 0.00 | 0.00 | 0.00 | 65 | 1052.0 |
| 20260505025935 | 58 | 294 | 0.0 | 1.7 | 0.00 | 0.00 | 0.00 | 64 | 1052.1 |
| 20260505025018 | 58 | 135 | 0.0 | 0.0 | 0.00 | 0.00 | 0.00 | 64 | 1052.0 |
| 20260505024035 | 58 | 180 | 0.0 | 0.0 | 0.00 | 0.00 | 0.00 | 64 | 1051.9 |
| 20260505023037 | 58 | 202 | 0.0 | 0.0 | 0.00 | 0.00 | 0.00 | 66 | 1052.0 |
| 20260505022134 | 57 | 169 | 0.0 | 0.0 | 0.00 | 0.00 | 0.00 | 65 | 1052.0 |
| 20260505020135 | 58 | 157 | 0.0 | 0.0 | 0.00 | 0.00 | 0.00 | 65 | 1052.1 |
| 20260505015036 | 58 | 225 | 0.0 | 0.0 | 0.00 | 0.00 | 0.00 | 64 | 1052.0 |
| 20260505014034 | 58 | 225 | 0.0 | 0.0 | 0.00 | 0.00 | 0.00 | 62 | 1052.0 |
| 20260505013934 | 58 | 225 | 0.0 | 0.0 | 0.00 | 0.00 | 0.00 | 61 | 1052.0 |
| 20260505012936 | 59 | 225 | 0.0 | 0.0 | 0.00 | 0.00 | 0.00 | 60 | 1051.8 |
| 20260505011934 | 60 | 22 | 0.0 | 0.0 | 0.00 | 0.00 | 0.00 | 56 | 1051.7 |
| 20260505005933 | 62 | 112 | 0.0 | 0.0 | 0.00 | 0.00 | 0.00 | 54 | 1051.6 |
| 20260505004934 | 62 | 180 | 0.0 | 0.9 | 0.00 | 0.00 | 0.00 | 52 | 1051.5 |
| 20260505003935 | 63 | 337 | 0.0 | 0.0 | 0.00 | 0.00 | 0.00 | 50 | 1051.5 |
| 20260505002936 | 64 | 337 | 0.0 | 0.9 | 0.00 | 0.00 | 0.00 | 49 | 1051.5 |
| 20260505002834 | 64 | 337 | 0.0 | 1.7 | 0.00 | 0.00 | 0.00 | 48 | 1051.6 |
| 20260505001933 | 64 | 238 | 0.9 | 2.6 | 0.00 | 0.00 | 0.00 | 47 | 1051.5 |
| 20260505000933 | 65 | 171 | 0.9 | 2.6 | 0.00 | 0.00 | 0.00 | 45 | 1051.3 |
| 20260504235936 | 66 | 189 | 0.9 | 6.1 | 0.00 | 0.00 | 0.00 | 45 | 1051.3 |
| 20260504234935 | 67 | 197 | 0.0 | 0.9 | 0.00 | 0.00 | 0.00 | 44 | 1051.3 |
| 20260504233935 | 68 | 218 | 1.7 | 7.0 | 0.00 | 0.00 | 0.00 | 44 | 1051.3 |
| 20260504231933 | 68 | 20 | 0.0 | 0.0 | 0.00 | 0.00 | 0.00 | 43 | 1051.3 |
| 20260504231833 | 68 | 169 | 0.0 | 0.9 | 0.00 | 0.00 | 0.00 | 42 | 1051.4 |
| 20260504230835 | 68 | 217 | 0.0 | 2.6 | 0.00 | 0.00 | 0.00 | 41 | 1051.3 |
| 20260504225933 | 69 | 215 | 0.9 | 2.6 | 0.00 | 0.00 | 0.00 | 41 | 1051.3 |
| 20260504224934 | 69 | 130 | 0.9 | 2.6 | 0.00 | 0.00 | 0.00 | 39 | 1051.2 |
| 20260504224836 | 69 | 183 | 0.9 | 3.5 | 0.00 | 0.00 | 0.00 | 40 | 1051.1 |
| 20260504223837 | 70 | 43 | 0.9 | 2.6 | 0.00 | 0.00 | 0.00 | 39 | 1051.2 |
| 20260504223733 | 70 | 358 | 0.9 | 3.5 | 0.00 | 0.00 | 0.00 | 38 | 1051.1 |
| 20260504222737 | 72 | 57 | 1.7 | 3.5 | 0.00 | 0.00 | 0.00 | 36 | 1051.1 |
| 20260504221736 | 73 | 124 | 0.9 | 2.6 | 0.00 | 0.00 | 0.00 | 36 | 1051.1 |
| 20260504220833 | 75 | 136 | 1.7 | 7.8 | 0.00 | 0.00 | 0.00 | 34 | 1051.1 |
| 20260504220735 | 75 | 152 | 0.0 | 1.7 | 0.00 | 0.00 | 0.00 | 35 | 1051.1 |
| 20260504215834 | 75 | 189 | 0.0 | 0.9 | 0.00 | 0.00 | 0.00 | 33 | 1051.1 |
| 20260504214835 | 75 | 27 | 0.0 | 0.0 | 0.00 | 0.00 | 0.00 | 35 | 1051.0 |
| 20260504213834 | 75 | 89 | 0.0 | 1.7 | 0.00 | 0.00 | 0.00 | 35 | 1051.0 |
| 20260504212835 | 75 | 176 | 0.0 | 1.7 | 0.00 | 0.00 | 0.00 | 35 | 1051.0 |
| 20260504211933 | 74 | 327 | 0.0 | 1.7 | 0.00 | 0.00 | 0.00 | 33 | 1051.0 |
| 20260504210835 | 74 | 195 | 0.9 | 2.6 | 0.00 | 0.00 | 0.00 | 36 | 1051.1 |
| 20260504210735 | 74 | 226 | 3.5 | 6.1 | 0.00 | 0.00 | 0.00 | 36 | 1051.1 |
| 20260504205833 | 74 | 133 | 1.7 | 4.3 | 0.00 | 0.00 | 0.00 | 36 | 1050.9 |
| 20260504204834 | 74 | 129 | 1.7 | 5.2 | 0.00 | 0.00 | 0.00 | 35 | 1051.1 |
| 20260504203835 | 74 | 189 | 2.6 | 6.1 | 0.00 | 0.00 | 0.00 | 35 | 1051.3 |
| 20260504202833 | 74 | 142 | 1.7 | 4.3 | 0.00 | 0.00 | 0.00 | 33 | 1051.4 |
| 20260504201836 | 74 | 212 | 3.5 | 5.2 | 0.00 | 0.00 | 0.00 | 32 | 1051.4 |
| 20260504200834 | 74 | 178 | 0.9 | 4.3 | 0.00 | 0.00 | 0.00 | 33 | 1051.5 |
| 20260504200718 | 73 | 205 | 1.7 | 4.3 | 0.00 | 0.00 | 0.00 | 33 | 1051.5 |
| 20260504193734 | 72 | 221 | 4.3 | 7.0 | 0.00 | 0.00 | 0.00 | 34 | 1052.1 |
| 20260504192734 | 72 | 230 | 1.7 | 4.3 | 0.00 | 0.00 | 0.00 | 34 | 1052.2 |
| 20260504190736 | 72 | 232 | 4.3 | 7.0 | 0.00 | 0.00 | 0.00 | 34 | 1052.7 |
| 20260504185834 | 71 | 159 | 3.5 | 7.8 | 0.00 | 0.00 | 0.00 | 33 | 1052.7 |
| 20260504184834 | 71 | 223 | 5.2 | 9.6 | 0.00 | 0.00 | 0.00 | 34 | 1053.0 |
| 20260504183835 | 71 | 215 | 6.1 | 11.3 | 0.00 | 0.00 | 0.00 | 34 | 1053.1 |
| 20260504181834 | 72 | 231 | 3.5 | 7.0 | 0.00 | 0.00 | 0.00 | 34 | 1053.0 |
| 20260504181734 | 72 | 229 | 2.6 | 3.5 | 0.00 | 0.00 | 0.00 | 34 | 1053.1 |
| 20260504180733 | 71 | 186 | 1.7 | 2.6 | 0.00 | 0.00 | 0.00 | 35 | 1053.2 |
| 20260504174834 | 69 | 215 | 1.7 | 3.5 | 0.00 | 0.00 | 0.00 | 36 | 1053.6 |
| 20260504173835 | 69 | 217 | 3.5 | 7.0 | 0.00 | 0.00 | 0.00 | 36 | 1053.6 |
| 20260504172833 | 69 | 233 | 3.5 | 7.0 | 0.00 | 0.00 | 0.00 | 35 | 1053.9 |
| 20260504171932 | 70 | 210 | 6.1 | 11.3 | 0.00 | 0.00 | 0.00 | 34 | 1053.6 |
| 20260504170937 | 69 | 151 | 1.7 | 2.6 | 0.00 | 0.00 | 0.00 | 36 | 1054.0 |